Location: C�mpuri de-Sus
(45.9500°N, 22.5500°E)
Time: 05:18:04
(UTC+00:00)

Cosmos 839 Rocket - Pass Details

Date: 05 June 2022
Orbit: 968 x 2085 km, 65.9° (Epoch: 06 July)

Event Time Altitude Azimuth Distance (km) Brightness Sun altitude
Rises 18:55:44 0° 325° (NW) 3,668 9.0 -6.2°
Reaches altitude 10° 18:58:52 10° 341° (NNW) 2,741 7.5 -6.6°
Maximum altitude 19:03:40 22° 32° (NNE) 2,088 5.9 -7.2°
Drops below altitude 10° 19:08:53 10° 81° (E) 3,014 6.2 -7.9°
Enters shadow 19:12:30 - 96° (E) 4,131 6.8 -8.3°
